Regional Weather Roundup
Issued by NWS

Home | Current Version | Previous Version | Text Only | Print | Product List | Glossary Off
Versions: 1 2 3 4 5 6 7 8 9 10 11 12 13 14 15 16 17 18 19 20 21 22 23 24 25 26 27 28 29 30 31 32 33 34 35 36 37 38 39 40 41 42 43 44 45 46 47 48 49 50

000
ASUS43 KOAX 230510
RWRNE

WEATHER ROUNDUP FOR NEBRASKA
NATIONAL WEATHER SERVICE OMAHA NE
1200 AM CDT SAT AUG 23 2014

NOTES: SATELLITE DATA IS BEING USED TO AUGMENT CLOUD COVER ABOVE
       12000 FEET.
       "FAIR" INDICATES FEW OR NO CLOUDS BELOW 12,000 FEET WITH NO
       SIGNIFICANT WEATHER AND/OR OBSTRUCTIONS TO VISIBILITY.

  * THESE STATIONS DO NOT REPORT WEATHER SUCH AS RAIN...SNOW OR FOG.

NEZ001>004-019>022-054>056-230600-
NEBRASKA PANHANDLE

CITY           SKY/WX    TMP DP  RH WIND       PRES   REMARKS
SCOTTSBLUFF    LGT RAIN  63  62  97 E6        29.99F
ALLIANCE       LGT RAIN  63  61  93 SE9       30.00F
CHADRON        CLOUDY    68  57  68 SE3       29.97F
KIMBALL        CLOUDY    59  58  97 SE13      29.99F
SIDNEY         LGT RAIN  62  58  86 NE8       30.01F
$$

NEZ057>060-069>072-079>082-230600-
SOUTHWEST NEBRASKA

CITY           SKY/WX    TMP DP  RH WIND       PRES   REMARKS
NORTH PLATTE   LGT RAIN  66  63  90 NE5       29.95F
IMPERIAL       CLOUDY    68  66  93 SE8       29.95R
LEXINGTON      LGT RAIN  67  66  95 SE7       30.00R
MCCOOK         HVY RAIN  68  66  93 E3        29.97F FOG
OGALLALA       CLOUDY    64  62  94 N7        29.98R
$$

NEZ005>010-023>029-035>040-094-230600-
NORTH CENTRAL NEBRASKA

CITY           SKY/WX    TMP DP  RH WIND       PRES   REMARKS
VALENTINE      CLOUDY    72  63  73 NE7       29.97F
AINSWORTH      CLOUDY    69  68  96 NE6       29.97S
BROKEN BOW     LGT RAIN  67  66  97 SE10      29.98R
O`NEILL        CLOUDY    74  72  94 E10       29.94F
ORD            LGT RAIN  67  65  93 S8        29.97R
THEDFORD       CLOUDY    70  68  94 E8        29.96F
$$

NEZ041-046>049-061>064-073>077-083>087-230600-
SOUTH CENTRAL NEBRASKA

CITY           SKY/WX    TMP DP  RH WIND       PRES   REMARKS
GRAND ISLAND   LGT RAIN  69  66  90 VRB3      30.00R
AURORA         RAIN      69  69 100 E5        29.98F
HASTINGS       LGT RAIN  68  64  87 CALM      29.96S
HEBRON         CLOUDY    77  71  81 CALM      29.92F
HOLDREGE       RAIN      69  66  92 SE3       29.99R
KEARNEY *      CLOUDY    68  66  94 NW6       30.01R
YORK           TSTM      68 N/A N/A W12G23    29.97F
$$

NEZ011>018-030>034-042>045-230600-
NORTHEAST NEBRASKA

CITY           SKY/WX    TMP DP  RH WIND       PRES   REMARKS
NORFOLK        LGT RAIN  71  67  87 E8        29.92F
ALBION         TSTM      66  64  92 E6G15     30.02R
BLAIR          MOCLDY    74  72  93 NE7       29.92F FOG
FREMONT        CLOUDY    73  71  93 E7        29.92F
TEKAMAH        MOCLDY    72  70  93 N6        29.92F
WAYNE          CLOUDY    73  73  97 CALM      29.95F
$$

NEZ050>053-065>068-078-088>093-230600-
SOUTHEAST NEBRASKA

CITY           SKY/WX    TMP DP  RH WIND       PRES   REMARKS
LINCOLN        TSTM      76  72  87 VRB3      29.92F
OMAHA EPPLEY   CLOUDY    76  73  91 E8        29.91F
BEATRICE       CLOUDY    75  73  93 SE3       29.90F
FALLS CITY     MOCLDY    75  72  90 SE5       29.90F
NEBRASKA CITY  CLOUDY    75  72  88 S3        29.92S THUNDER
PLATTSMOUTH    MOCLDY    74  71  89 CALM      29.92F
$$

NEZ044-045-051>053-067-230600-
OMAHA AREA

CITY           SKY/WX    TMP DP  RH WIND       PRES   REMARKS
OMAHA EPPLEY   CLOUDY    76  73  91 E8        29.91F
BLAIR          MOCLDY    74  72  93 NE7       29.92F FOG
FREMONT        CLOUDY    73  71  93 E7        29.92F
MILLARD        MOCLDY    77  74  91 CALM      29.91F
OFFUTT AFB     MOCLDY    75  75 100 E6        29.91F
PLATTSMOUTH    MOCLDY    74  71  89 CALM      29.92F
WAHOO          FAIR      73  70  91 E5        29.92F FOG
$$


USA.gov is the U.S. government's official web portal to all federal, state and local government web resources and services.